Погода в Юй Чи Сяне

Тайвань     23°53′45″N   120°56′08″E
темп.,
°C
ветер,
м/с
пор.,
м/с
влажн.,
%
обл.,
%
осадки,
мм/ч
давл.,
гПа
погр.,
м
6 марта, сб
сб623:00+17в118463 0.2 101827
02:00+15всв229145 1.4 101730
05:00+15в22896 1.1 101730
08:00+19ссз01809 2.4 1018235
11:00+22зсз227145 2.3 1019633
14:00+21з118038 6.3 1017467
17:00+20з118424 2.8 1017304
20:00+16в129424 6.5 101856
7 марта, вс
вс723:00+16в019195 0.6 101923
02:00+16в119298 1.7 101826
05:00+15всв119571 1.9 101925
08:00+18в118589 3.4 1020143
11:00+22з227019 2.5 1020807
14:00+22з227320 4.9 1019799
17:00+18з118435 1.7 1019381
20:00+15в119327 2.8 102123
8 марта, пн
пн823:00+14в129115 0.1 102126
02:00+14в129214 0.1 102026
05:00+13в22902 0.0 102030
08:00+18в11764 0.0 1022141
11:00+22з22600 0.0 1022927
14:00+22з33591 0.1 10201093
17:00+19з22722 0.3 1020561
20:00+15в12916 0.3 102227
9 марта, вт
вт923:00+14в228225 0.0 102238
02:00+13в227816 0.0 102140
05:00+13в22780 0.0 102037
08:00+18в01600 0.0 1022232
11:00+22з22550 0.0 1022848
14:00+22з32540 0.1 10201143
17:00+19з11700 0.8 1020621
20:00+15в22850 0.9 102229
10 марта, ср
ср1023:00+14в22820 0.0 102336
02:00+13в22820 0.0 102242
05:00+12в22810 0.0 102235
08:00+17в12650 0.0 1023288
11:00+21з32550 0.0 1023935
14:00+21з22596 0.1 10211026
17:00+19з216720 0.0 1020730
20:00+15в128312 0.0 102131